Probability
0 0 0 0 1 1 1 1 2 1 0 0 0 0 0 0 1 3 2 1 0 0 0 0 0 0 0 0 0 0 0 0 0 0 0 0 0 0 0 0 0 1 1
0 0 0 0 0 0 1 2 3 3 1 0 0 0 0 0 1 2 2 0 0 0 0 0 0 0 0 0 0 0 0 0 0 0 0 0 0 0 0 0 0 1 1
0 0 0 0 0 0 1 2 4 3 1 0 0 0 0 0 0 1 2 1 0 0 0 0 0 0 0 0 0 0 0 0 0 0 0 0 0 0 0 0 0 1 1
0 0 0 0 0 0 0 1 1 1 0 0 0 0 0 1 1 2 2 1 1 1 0 0 0 0 0 0 0 0 0 0 0 0 0 0 0 0 0 0 0 0 0
0 0 0 0 0 0 0 0 0 0 0 0 0 0 1 2 2 2 1 1 2 2 1 1 0 0 0 0 0 0 0 0 0 0 0 0 0 0 0 0 0 0 1
0 0 0 0 0 0 0 0 0 0 0 0 0 0 1 2 3 3 2 3 3 3 3 2 1 1 0 0 0 0 0 0 0 0 0 0 0 0 0 0 0 0 1
0 0 0 0 0 0 0 0 0 0 0 0 0 0 0 2 3 4 4 3 3 3 3 3 2 1 0 0 0 0 0 0 0 0 0 0 0 1 1 1 0 0 1
0 0 0 0 0 0 0 0 0 0 0 0 0 0 0 1 3 4 4 4 3 3 3 3 2 1 0 0 0 0 0 0 0 0 0 0 0 1 2 2 1 0 0
0 0 0 0 0 0 0 0 0 0 0 0 0 0 0 1 2 3 4 3 3 3 3 2 1 1 1 1 1 0 0 0 0 0 0 0 0 0 1 2 2 1 1
0 0 0 0 0 0 0 0 0 1 0 0 0 0 0 0 1 2 3 3 3 3 2 1 1 1 2 2 1 0 0 0 0 0 0 0 0 0 0 1 2 2 2
0 0 0 0 0 0 0 0 0 0 0 0 0 0 0 0 0 1 2 3 2 1 1 0 0 1 2 2 1 0 0 0 0 0 0 0 0 0 0 0 1 2 2
0 0 0 0 0 0 0 0 0 0 0 0 0 0 0 0 0 0 1 2 1 0 0 0 0 0 1 1 0 0 0 0 0 0 0 0 0 0 0 0 1 2 2
0 0 0 0 0 0 0 0 0 0 0 0 0 0 0 0 0 0 0 0 0 0 0 0 0 0 0 0 0 0 0 0 0 0 0 0 0 0 0 0 1 2 2
0 0 0 0 0 0 0 0 0 0 0 0 0 0 0 0 0 0 0 0 0 0 0 0 0 0 0 0 0 0 0 0 0 0 0 0 0 0 0 0 0 1 1
0 0 0 0 0 0 0 0 0 0 0 0 0 0 0 0 0 0 0 0 0 0 0 0 0 0 0 0 0 0 0 0 0 0 0 0 0 0 0 0 0 0 0
0 0 0 0 0 0 0 0 0 0 0 0 0 0 0 0 0 0 0 0 0 0 0 0 0 0 0 0 0 0 0 0 0 0 0 0 0 0 1 1 0 0 0
0 0 0 1 1 0 0 0 0 0 0 0 0 0 0 0 0 0 0 0 0 0 0 0 0 0 0 0 0 0 0 0 0 0 0 0 0 0 0 1 1 1 0
0 0 0 1 1 1 0 0 0 0 0 0 0 0 0 0 0 0 0 0 0 0 0 0 0 0 0 0 0 0 0 0 0 0 0 0 0 0 0 0 1 1 1
0 0 0 1 1 1 1 0 0 0 0 0 0 0 0 0 0 0 0 0 0 0 0 0 0 0 0 0 0 0 0 0 0 0 0 0 0 0 0 0 0 0 0
0 0 0 0 0 1 1 0 0 0 0 0 0 0 0 0 0 0 0 0 0 0 0 0 0 0 0 0 0 0 0 0 0 0 0 0 0 0 0 0 0 0 0
0 0 0 0 0 0 0 0 0 0 0 0 0 0 0 0 0 0 0 0 0 0 0 0 0 0 0 0 0 0 0 0 0 0 0 0 0 0 0 0 0 0 0
0 0 0 0 0 0 0 0 0 0 0 0 0 0 0 0 0 0 0 0 0 0 0 0 0 0 0 0 0 0 0 0 0 0 0 0 0 0 0 0 0 0 0
0 0 0 0 0 0 0 0 0 0 0 0 0 0 0 0 0 0 0 0 0 0 0 0 0 0 0 0 0 0 0 0 0 0 0 0 0 0 0 0 0 0 0
0 0 0 0 0 0 0 0 1 0 0 0 0 0 0 0 0 0 0 0 0 0 0 0 0 0 0 0 0 0 0 0 0 0 0 0 0 0 0 0 0 0 0
0 0 0 0 0 0 0 0 0 0 0 0 0 0 0 0 0 0 0 0 0 0 0 0 0 0 0 0 0 0 0 0 0 0 0 0 0 0 0 0 0 0 0
0 1 1 1 0 0 0 0 0 0 0 0 0 0 0 0 0 0 0 0 0 0 0 0 0 0 0 0 0 0 0 0 0 0 0 0 0 0 0 0 0 0 0
Wind_Speed
2 2 3 5 7 8 8 8 8 8 8 8 8 8 8 8 8 8 8 9 9 9 9 9 9 10 10 9 9 9 9 9 9 8 8 7 7 7 7 7 6 4 5
0 1 3 5 7 7 8 8 8 8 8 8 8 8 8 8 8 8 8 8 9 9 9 9 9 10 10 9 9 9 10 10 10 10 9 8 7 7 7 7 7 5 7
2 2 3 5 6 7 7 8 8 8 8 8 8 8 8 8 8 8 7 7 9 9 9 9 10 10 9 10 10 10 10 10 11 11 9 5 5 8 8 8 8 9 9
2 2 3 6 7 7 7 7 8 8 8 8 9 9 9 9 8 8 7 7 9 9 10 10 10 10 10 10 11 11 11 11 11 10 6 5 4 8 9 10 10 9 10
3 3 3 7 7 8 8 8 8 8 8 8 9 9 9 9 9 9 10 10 10 10 10 10 10 10 11 11 11 11 12 11 12 9 5 5 4 8 10 10 11 11 11
3 3 3 7 7 7 8 8 9 9 9 9 9 9 9 9 9 10 12 12 11 11 10 10 11 11 11 11 12 12 12 12 10 6 5 5 4 8 10 10 10 10 10
3 3 3 6 6 7 8 9 9 9 9 9 9 9 9 9 10 11 12 12 12 11 11 11 11 11 11 12 12 12 12 12 7 6 5 4 5 9 10 10 10 11 11
3 3 3 5 6 7 8 9 9 9 9 9 9 9 9 10 11 11 12 12 12 12 12 12 12 12 12 12 12 12 12 11 8 6 5 4 8 11 11 11 11 11 11
4 3 3 3 4 6 7 8 9 9 9 9 9 9 9 10 10 11 11 11 12 13 13 13 13 13 13 13 13 13 13 12 7 5 6 4 9 11 12 12 11 11 12
3 3 3 3 4 4 4 6 8 9 9 9 10 10 10 10 10 10 10 10 11 12 12 13 13 13 13 14 14 13 13 10 6 5 4 5 10 11 12 12 12 12 12
2 2 2 3 3 3 3 5 6 7 8 8 8 10 8 5 5 6 8 10 11 11 12 13 13 13 13 13 14 13 10 5 5 4 3 8 10 11 11 11 10 11 11
1 1 1 2 2 3 3 3 3 3 4 4 4 4 4 4 4 6 8 11 11 11 11 13 13 12 9 6 8 10 5 6 5 4 5 10 10 10 10 10 10 10 10
2 1 1 1 1 2 2 2 2 2 2 3 4 4 4 4 4 4 4 5 6 8 6 7 8 6 5 5 5 5 5 5 4 4 5 10 10 10 10 10 11 11 11
2 1 1 1 1 1 1 1 1 1 2 2 2 3 3 2 3 3 3 3 3 3 4 4 4 5 6 6 6 6 6 5 4 4 5 10 10 10 10 10 10 11 11
3 2 1 1 2 2 1 1 1 1 1 1 1 2 2 2 3 3 2 3 3 3 3 4 4 5 5 5 6 6 6 6 6 5 5 11 12 11 10 10 10 11 11
4 4 2 2 2 2 2 1 1 1 1 1 1 1 2 2 2 3 3 3 3 3 3 4 4 4 4 4 5 6 6 5 6 6 5 8 13 13 12 11 11 10 10
4 3 3 3 2 3 2 2 1 1 1 2 1 1 2 3 3 3 3 3 2 3 4 4 4 4 4 4 5 5 5 5 6 6 6 5 6 10 12 12 11 11 10
3 3 3 3 3 3 2 1 1 1 2 2 2 1 2 3 3 3 3 2 2 3 3 4 3 4 4 4 4 4 4 4 6 5 5 6 5 5 8 12 11 11 11
4 4 3 3 3 3 2 2 2 2 2 2 2 1 2 3 3 3 2 2 3 3 3 3 3 3 3 3 3 4 4 4 4 5 6 6 5 5 5 9 12 11 11
3 4 4 3 3 3 2 2 2 2 1 1 1 2 2 3 4 3 3 3 3 3 3 3 4 3 3 2 4 4 4 3 4 4 4 4 5 6 6 6 6 7 11
2 3 4 4 3 3 2 2 2 1 1 1 1 2 2 3 4 4 3 2 2 3 3 3 3 4 2 1 3 3 3 4 4 3 3 4 5 5 5 5 4 4 5
4 4 3 4 3 3 2 2 2 2 1 1 1 1 2 3 3 4 4 3 3 3 3 3 3 2 1 1 2 2 2 3 4 4 3 3 3 3 4 5 5 5 4
4 5 4 4 4 3 3 2 3 3 2 2 1 1 0 2 2 2 3 3 3 3 3 2 2 3 2 1 1 2 2 1 2 3 3 3 3 3 3 3 4 4 4
5 4 4 4 4 3 4 4 4 3 2 2 1 1 1 1 2 2 3 3 3 2 3 3 2 2 3 1 1 1 2 2 2 1 2 2 3 3 3 3 3 3 4
4 3 4 4 4 4 4 4 4 3 2 1 1 1 1 1 1 2 3 3 3 2 3 3 2 2 2 2 2 1 1 2 2 2 1 2 2 2 2 2 2 2 3
2 3 4 4 3 4 4 4 5 5 4 3 2 2 1 0 1 1 2 2 3 2 3 3 3 3 2 2 2 2 2 2 2 2 1 1 1 2 2 2 2 2 2
Wind_Direction
319 320 18 59 61 58 66 77 84 80 79 78 78 80 82 81 80 80 83 81 82 83 79 77 77 77 74 71 69 70 73 73 70 71 70 71 72 72 74 74 72 65 81
300 354 51 67 70 69 69 73 75 75 77 76 74 78 80 80 80 82 83 83 83 82 81 78 75 75 74 72 71 68 71 72 68 66 63 62 65 68 72 75 76 72 73
71 32 51 68 73 73 71 72 74 77 77 77 75 76 77 76 76 78 82 88 88 84 81 79 77 75 73 71 72 70 69 70 67 64 56 42 49 63 68 74 77 75 69
80 50 54 72 75 76 74 71 72 74 76 77 78 79 77 74 71 69 73 94 95 87 81 80 78 75 72 70 70 69 68 69 67 62 47 36 42 65 67 72 74 76 72
64 46 57 75 75 78 76 73 73 76 77 77 78 79 77 74 71 66 72 90 93 86 81 78 77 76 73 70 69 70 69 66 64 55 42 36 40 65 68 70 72 73 73
64 48 65 77 77 79 79 77 77 75 75 77 78 79 76 74 73 70 73 82 85 82 79 77 76 76 73 71 71 70 68 65 58 47 39 32 40 66 69 73 73 72 71
71 54 64 82 81 81 81 81 80 77 74 75 78 79 77 76 75 74 75 78 80 82 80 76 74 74 73 73 72 69 69 66 58 47 36 32 54 68 70 71 74 74 74
81 60 55 75 77 77 82 83 82 78 76 76 78 79 77 75 75 74 74 76 75 77 76 73 72 71 70 72 71 68 67 64 58 48 38 40 65 69 70 71 73 75 74
73 62 44 45 60 76 82 82 79 76 74 75 77 77 77 76 75 73 72 73 73 72 71 71 69 67 68 69 68 66 64 60 51 41 47 44 65 71 70 68 69 72 74
67 57 47 43 44 46 58 75 75 74 72 72 75 75 69 65 66 67 67 70 73 72 70 70 69 68 67 67 65 63 60 54 43 40 36 53 64 71 71 69 69 69 72
74 49 49 57 52 48 50 64 64 68 63 62 65 70 63 47 45 51 60 68 71 71 71 70 68 67 64 62 62 59 54 42 38 35 34 58 67 72 72 71 72 71 71
143 102 60 69 60 53 60 52 44 50 47 48 50 53 51 47 45 51 55 66 68 68 69 68 66 61 57 50 52 52 43 38 36 29 43 56 66 72 71 72 73 73 74
180 164 128 97 74 72 62 59 48 49 50 45 49 51 54 50 44 44 45 48 52 59 57 59 58 52 50 48 46 42 39 39 30 22 36 52 62 69 69 71 73 71 71
159 186 177 135 103 101 89 69 69 68 64 57 49 56 62 59 54 49 49 48 51 55 62 59 62 56 53 49 48 47 44 41 32 23 30 47 58 66 67 69 73 72 70
171 190 194 165 143 130 107 78 81 82 87 86 73 67 80 81 76 69 61 55 57 62 70 70 67 60 55 48 47 50 48 43 37 33 25 44 53 57 62 66 70 72 71
183 190 181 168 165 137 133 128 112 108 110 102 96 94 96 96 92 88 77 64 60 64 72 79 76 69 59 53 48 44 43 41 37 35 30 32 42 48 53 60 65 69 69
185 186 181 173 153 143 151 159 137 123 115 115 119 106 100 102 101 99 91 80 72 79 83 83 75 67 63 57 48 43 42 39 38 35 32 29 26 36 46 53 58 63 66
168 173 184 169 151 150 152 146 120 113 116 111 106 103 107 112 113 103 95 89 86 86 86 87 80 75 64 59 52 41 39 35 32 35 38 32 28 26 33 44 51 57 60
175 172 167 159 158 157 147 127 109 101 106 111 110 112 115 114 116 110 104 102 101 91 83 94 79 85 82 70 66 53 40 35 26 32 36 33 29 28 29 33 41 50 55
174 166 162 160 157 140 123 103 84 74 75 89 109 123 123 118 119 114 104 101 103 96 83 88 91 75 79 78 75 60 40 32 33 28 27 29 28 29 34 34 30 32 43
166 162 165 161 162 146 130 132 127 134 114 84 91 121 125 125 125 122 117 108 106 109 114 111 104 89 72 68 76 48 25 30 35 24 21 29 26 23 28 32 31 29 22
188 180 169 170 169 167 160 153 143 135 125 117 80 80 107 130 137 140 136 134 127 114 107 111 109 103 75 50 95 85 26 4 5 16 18 24 17 19 26 28 30 30 24
196 192 186 184 176 173 152 116 88 71 57 58 56 58 103 136 136 136 143 137 139 140 146 145 133 126 129 50 65 118 121 221 330 350 9 16 13 17 12 15 25 22 23
209 197 186 181 176 171 156 150 148 153 166 189 174 169 144 128 138 136 140 142 147 146 153 167 153 140 134 136 75 69 119 151 140 347 341 357 8 12 4 7 13 14 15
202 190 184 175 173 166 163 166 157 158 172 147 116 128 129 130 142 150 152 154 160 160 167 172 158 155 150 153 151 135 103 80 105 141 288 331 351 350 352 355 3 7 9
181 179 175 170 178 167 165 167 169 171 164 147 154 168 178 184 182 179 164 169 175 173 179 184 176 171 173 161 161 154 152 152 170 156 176 263 313 320 340 351 358 353 358